Home > Weather > Tangier > Past weeks

Flag for Morocco Past Weather in Tangier, Morocco — Yesterday and Last 2 Weeks

Now
88 °F

Scattered clouds.


Feels Like: 88 °F
Forecast: 71 / 91 °F
Wind: 23 mph from Northeast

Location: Tanger Aerodrome

Current Time: Jul 26, 2016 at 1:26:51 PM

Latest Report: Jul 26, 2016 at 1:00 PM


Visibility: N/A

Pressure: 29.98 "Hg

Humidity: 43%

Dew Point: 63 °F

Location of TangierLocation

Past Weather in Tangier — Graph

°F

Tangier Temperature Yesterday

Maximum temperature yesterday: 95 °F (at 2:30 PM)
Minimum temperature yesterday: 75 °F (at 5:30 AM)
Average temperature yesterday: 84 °F

High & Low Weather Summary for the Past Weeks

 TemperatureHumidityPressure
High95 °F (Jul 25, 2:30 PM)88% (Jul 12, 5:00 AM)30.04 "Hg (Jul 12, 5:00 AM)
Low61 °F (Jul 23, 6:30 AM)22% (Jul 25, 4:00 PM)29.86 "Hg (Jul 16, 6:00 PM)
Average79 °F56%29.95 "Hg
* Reported Jul 11 12:00 PM — Jul 26 12:00 PM, Tangier, Weather by CustomWeather, © 2016

Note: Actual official high and low records may vary slightly from our data, if they occured in-between our weather recording intervals... More about our weather records

Advertising

Tangier Weather History for the Previous 24 Hours

Scroll right to see more
 ConditionsComfort  
Time TempWeatherWind HumidityBarometerVisibility
12:00 PM
Tue, Jul 26
88 °FScattered clouds.15 mph43%30.01 "HgN/A
11:30 AM88 °FScattered clouds.15 mph43%30.01 "HgN/A
11:00 AM86 °FScattered clouds.13 mph43%30.01 "HgN/A
10:30 AM88 °FScattered clouds.13 mph40%30.01 "HgN/A
10:00 AM84 °FScattered clouds.16 mph48%30.01 "HgN/A
9:30 AM82 °FScattered clouds.18 mph51%30.01 "Hg5 mi
9:00 AM81 °FPartly sunny.14 mph54%30.01 "Hg5 mi
8:30 AM79 °FPartly sunny.17 mph58%29.98 "Hg5 mi
8:00 AM77 °FPartly sunny.17 mph65%29.98 "Hg5 mi
7:30 AM73 °FPartly sunny.15 mph74%29.95 "Hg5 mi
7:00 AM73 °FScattered clouds.15 mph74%29.95 "Hg5 mi
6:30 AM73 °FScattered clouds.15 mph74%29.95 "Hg5 mi
6:00 AM73 °FPassing clouds.15 mph78%29.95 "Hg5 mi
5:30 AM73 °FPassing clouds.15 mph78%29.92 "Hg5 mi
5:00 AM73 °FPassing clouds.16 mph78%29.95 "Hg5 mi
4:30 AM73 °FPassing clouds.14 mph78%29.95 "HgN/A
4:00 AM73 °FPassing clouds.15 mph78%29.95 "Hg5 mi
3:30 AM73 °FPassing clouds.15 mph78%29.95 "Hg5 mi
3:00 AM75 °FPassing clouds.18 mph74%29.95 "Hg5 mi
2:30 AM75 °FPassing clouds.18 mph74%29.98 "Hg5 mi
2:00 AM75 °FPassing clouds.16 mph74%29.98 "Hg5 mi
1:30 AM77 °FPassing clouds.12 mph69%29.98 "Hg5 mi
1:00 AM77 °FPassing clouds.17 mph65%29.98 "Hg5 mi
12:30 AM77 °FPassing clouds.13 mph61%29.95 "Hg5 mi
12:00 AM77 °FPassing clouds.15 mph61%29.95 "Hg5 mi
11:30 PM
Mon, Jul 25
79 °FPassing clouds.15 mph58%29.95 "Hg5 mi
11:00 PM81 °FPassing clouds.14 mph51%29.95 "Hg5 mi
10:30 PM81 °FPassing clouds.16 mph51%29.95 "Hg5 mi
10:00 PM82 °FPassing clouds.18 mph45%29.92 "Hg5 mi
9:30 PM82 °FPassing clouds.17 mph45%29.92 "Hg5 mi
9:00 PM82 °FPassing clouds.18 mph45%29.92 "HgN/A
8:30 PM84 °FPassing clouds.22 mph43%29.89 "HgN/A
8:00 PM86 °FPassing clouds.20 mph35%29.89 "HgN/A
7:30 PM88 °FPassing clouds.22 mph33%29.89 "HgN/A
7:00 PM90 °FPassing clouds.21 mph29%29.89 "HgN/A
6:30 PM91 °FPassing clouds.18 mph30%29.89 "HgN/A
6:00 PM91 °FPassing clouds.18 mph32%29.89 "HgN/A
5:30 PM93 °FPassing clouds.23 mph24%29.92 "HgN/A
5:00 PM95 °FPassing clouds.22 mph22%29.92 "HgN/A
4:30 PM95 °FSunny.20 mph23%29.92 "Hg10 mi
4:00 PM95 °FSunny.23 mph22%29.92 "Hg10 mi
3:30 PM95 °FSunny.22 mph23%29.92 "Hg10 mi
3:00 PM95 °FSunny.25 mph23%29.92 "Hg10 mi
2:30 PM95 °FSunny.25 mph25%29.95 "Hg10 mi
2:00 PM93 °FSunny.25 mph28%29.95 "Hg10 mi
1:30 PM93 °FSunny.26 mph26%29.95 "Hg10 mi
1:00 PM93 °FSunny.26 mph28%29.95 "Hg10 mi
Weather by CustomWeather, © 2016

See weather overviewHow to use our weather pages